Wind_Speed
15 15 15 14 15 14 15 15 15 15 14 15 15 15 15 14 13 12 13 13 13 13 14 14 13 13 11 11 12 13 14 11 6 6 9 7 6 6 8 15 16 17 16 14 14 12 10 8 6 5 5 4 2 1 0 2 3 3 2 3 5 5 5 4 5 5 3 4 5 7 8 6 6 7 5 5 7 5 6 8 5 5 4 3 7 12 18 20
15 15 15 15 15 14 15 15 15 14 14 14 14 15 14 12 12 11 12 13 13 13 13 13 12 11 10 10 12 13 14 10 8 9 11 7 6 10 12 16 16 17 17 15 14 10 7 5 6 6 5 2 0 1 1 1 2 3 3 5 6 5 5 3 4 4 3 4 4 5 7 6 4 6 6 6 7 7 7 8 7 7 6 6 10 14 18 20
15 15 15 15 15 15 15 15 14 14 14 14 14 13 12 11 10 11 12 12 13 13 13 13 11 10 9 10 11 11 11 8 7 4 5 8 11 12 14 17 16 17 15 12 11 7 2 2 5 5 4 3 1 1 1 1 1 3 3 5 7 5 4 3 2 2 2 3 3 4 5 5 4 5 6 6 5 7 7 6 7 8 7 8 11 14 17 18
15 15 15 15 15 14 14 14 14 14 14 14 13 12 10 9 10 11 12 12 13 12 13 12 10 9 9 10 10 9 8 7 3 5 6 12 15 14 15 17 17 16 11 7 7 4 1 2 4 4 4 3 2 1 2 3 2 3 3 5 7 3 4 4 2 1 1 2 2 3 4 4 5 5 5 6 5 5 6 6 7 6 7 9 11 13 16 17
15 15 15 15 15 14 14 14 13 14 14 13 12 10 8 8 10 11 11 12 12 12 12 10 8 9 8 9 9 6 6 4 5 6 8 14 16 15 16 17 18 16 9 6 6 5 4 2 3 4 4 3 4 2 4 5 3 2 4 5 5 3 4 4 2 2 1 1 2 2 3 3 5 5 5 7 5 2 2 3 6 5 6 10 11 13 14 16
15 15 15 15 15 14 13 13 13 13 13 13 11 9 8 9 10 11 12 12 11 11 11 9 8 8 8 9 6 2 6 0 5 4 9 14 15 15 16 18 18 14 9 7 7 6 4 3 3 3 3 2 6 6 6 5 2 2 5 5 4 3 3 3 2 2 2 1 2 1 2 2 4 4 4 7 5 3 0 1 3 4 6 9 11 12 13 14
15 15 15 14 14 14 13 13 13 13 13 12 10 8 9 9 10 11 11 11 10 10 9 8 7 7 9 6 3 4 5 3 5 3 9 16 14 15 17 19 18 13 10 9 7 5 3 4 3 5 4 2 7 7 6 4 1 2 5 6 4 2 2 1 1 2 2 0 1 0 1 2 3 2 2 6 6 6 4 1 1 4 8 10 11 11 12 13
16 15 15 14 14 14 13 13 13 13 12 10 9 9 9 9 10 10 10 10 9 9 8 7 6 7 8 4 3 5 3 5 4 2 10 18 15 15 19 19 17 13 11 10 6 4 3 3 4 6 5 4 7 7 6 3 2 3 6 5 3 1 1 1 1 2 2 0 0 1 2 1 1 2 4 6 5 6 6 3 3 6 9 10 10 11 11 11
16 15 15 15 14 14 13 13 12 12 10 9 9 9 8 9 9 9 9 9 8 7 6 6 5 6 6 4 7 5 3 5 2 3 11 19 17 18 20 17 16 13 11 8 5 5 3 4 6 6 7 5 7 8 7 4 1 6 8 4 4 2 1 2 2 2 3 1 2 3 2 0 1 3 5 4 3 5 6 6 6 7 9 9 9 10 10 10
16 15 15 14 14 13 12 12 11 10 9 9 9 8 8 8 8 8 8 8 7 5 4 5 5 5 5 4 8 3 6 5 4 7 14 19 18 20 19 15 16 14 10 7 6 5 4 5 6 6 7 4 7 7 5 6 6 7 8 4 4 2 1 3 3 3 3 2 3 4 3 0 1 3 1 3 4 5 7 7 8 8 8 8 8 8 9 9
15 15 15 14 14 13 12 12 10 9 9 9 9 8 8 8 8 7 7 6 5 3 3 4 3 4 4 6 7 2 6 4 6 10 16 19 17 20 17 13 15 13 8 6 6 6 6 6 6 6 4 4 9 7 2 6 8 8 7 5 2 2 2 3 3 3 3 2 3 4 4 1 2 3 0 4 3 4 5 7 9 8 7 7 7 8 7 8
15 14 14 14 14 12 12 10 9 9 9 9 9 8 8 7 7 6 5 5 3 2 2 2 2 4 4 7 4 3 6 3 6 11 15 16 14 14 13 12 13 11 8 6 5 4 6 5 6 7 5 7 10 5 3 6 9 6 5 6 1 5 3 3 3 4 4 1 3 3 3 3 4 2 2 3 1 3 5 7 8 8 6 7 7 7 6 7
15 14 14 14 13 12 11 9 8 9 9 9 8 7 7 6 5 4 4 4 3 2 1 2 2 3 5 4 2 3 3 3 7 11 12 12 9 8 9 11 11 9 7 6 4 2 5 4 6 9 7 8 7 5 6 7 7 5 3 5 3 4 4 4 3 5 5 2 3 3 0 4 3 3 2 2 2 4 6 6 7 7 6 6 7 6 6 7
15 14 14 13 12 11 10 8 8 9 9 9 8 7 7 5 4 3 3 3 2 2 1 2 2 1 5 1 5 1 1 4 8 11 11 11 8 7 8 9 9 8 5 5 3 2 4 4 7 9 6 6 6 7 9 6 3 5 3 2 2 1 5 5 3 6 6 2 3 5 1 6 5 3 0 2 4 5 5 6 7 6 6 6 6 6 6 8
15 14 13 12 11 10 8 8 8 9 9 8 7 7 6 4 2 2 3 2 2 1 0 2 1 2 5 3 5 2 3 5 8 9 10 10 8 6 7 8 8 7 5 4 3 2 3 4 6 7 5 5 7 8 7 2 1 3 3 0 2 4 4 7 3 4 2 3 5 6 2 5 6 5 2 4 6 6 4 5 6 6 6 6 6 6 6 7
15 14 13 11 10 8 7 8 8 8 7 6 6 6 4 2 2 2 2 2 2 1 1 1 1 4 5 3 6 4 4 6 7 8 9 8 5 4 7 8 7 7 5 4 3 3 3 4 5 6 6 6 6 6 4 3 3 1 3 3 4 5 2 4 4 2 0 2 6 5 3 3 6 6 5 5 6 5 4 4 6 6 7 6 5 5 6 7
15 14 12 10 9 8 7 8 8 6 5 5 5 3 0 1 3 2 2 2 1 1 1 3 2 5 4 4 6 7 7 6 6 8 10 7 4 5 8 7 7 7 6 4 4 5 5 4 5 4 4 4 3 5 4 2 2 1 3 2 2 4 4 2 3 3 2 2 4 6 4 1 4 4 3 5 5 4 4 4 6 6 6 6 5 6 7 7
15 13 11 9 8 8 8 7 6 4 4 3 2 1 3 3 3 2 2 2 1 2 2 3 3 4 3 5 5 6 7 6 6 7 9 7 5 5 5 4 5 7 7 5 5 6 5 4 4 4 4 4 3 4 3 3 4 4 4 3 2 2 2 4 4 3 2 3 3 5 5 1 3 2 1 3 4 4 3 3 5 5 6 6 6 6 7 7
15 12 10 9 8 8 7 6 5 2 1 2 4 6 6 4 3 2 3 3 3 3 1 3 5 3 2 7 5 5 6 5 6 7 8 8 7 6 5 4 5 6 6 5 5 5 3 4 5 5 4 2 0 3 5 6 6 6 5 4 5 3 2 5 5 3 1 4 4 4 4 1 2 3 2 3 3 4 4 3 4 4 5 5 6 6 6 7
14 12 10 9 8 7 6 5 3 1 2 6 8 6 4 3 3 4 5 6 8 6 4 2 5 4 2 7 5 4 5 5 6 7 9 9 8 8 7 6 7 7 7 6 3 3 2 5 6 4 3 2 3 3 5 6 5 6 6 4 4 3 2 5 4 3 2 5 2 2 4 2 1 0 1 2 3 5 5 5 4 5 5 5 5 5 6 7
14 12 10 9 7 6 5 4 2 2 4 9 9 4 2 2 2 0 1 7 10 8 8 5 5 6 3 1 1 2 4 6 6 8 9 10 10 9 8 8 8 7 7 7 3 0 3 6 4 1 3 3 3 3 4 5 4 5 5 3 3 2 2 5 3 3 3 5 1 1 3 0 2 2 1 1 4 5 5 5 5 5 5 4 5 5 5 5
13 11 10 8 6 5 4 3 3 3 5 9 8 6 3 4 3 3 3 5 6 7 8 5 5 7 5 4 3 2 4 7 8 9 10 10 12 10 7 9 10 7 5 6 6 4 6 7 1 3 2 1 2 3 4 5 5 5 4 3 3 1 1 3 4 4 3 4 1 2 3 3 4 3 3 1 2 2 2 3 3 4 5 4 4 4 4 5
13 10 9 8 6 5 4 3 3 3 6 8 6 5 1 2 3 3 4 5 2 6 6 7 7 7 7 6 5 6 7 7 9 11 12 12 12 9 7 9 10 6 5 7 7 6 4 2 3 3 1 3 4 4 5 6 5 4 3 4 2 2 2 1 4 4 2 3 1 1 3 3 4 3 4 3 1 0 1 2 2 2 3 3 3 3 4 5
12 10 9 7 5 4 3 3 2 3 6 7 7 5 2 4 5 4 5 5 2 4 5 6 5 6 6 3 8 12 7 5 7 11 15 14 10 6 7 8 8 7 7 8 7 8 6 3 4 1 3 5 5 5 6 6 4 3 2 5 4 2 3 3 2 2 3 4 3 4 4 4 4 3 4 4 4 3 2 3 3 1 2 2 2 3 4 5
10 9 7 5 4 3 3 2 2 3 5 6 6 5 5 7 4 6 5 4 3 4 4 5 4 5 5 5 8 10 5 6 6 11 15 14 9 7 5 4 6 7 7 7 7 8 6 2 2 3 4 5 6 5 4 5 3 3 2 3 6 4 4 3 1 3 4 4 5 5 6 4 6 4 4 5 5 6 4 4 5 4 3 3 3 3 3 4
9 7 5 3 3 4 4 2 3 4 5 4 3 4 6 8 4 7 4 4 4 5 6 6 5 7 8 7 9 7 6 8 4 8 13 10 7 5 4 4 4 4 2 3 5 5 2 2 1 4 3 4 7 4 4 3 5 2 5 4 5 5 5 5 4 5 5 0 3 5 6 1 6 6 5 6 7 7 6 5 6 5 4 3 2 1 1 1
8 5 5 4 3 7 4 1 4 5 4 3 3 4 7 5 7 7 4 4 4 5 6 4 3 7 7 8 11 7 5 9 7 7 9 8 7 4 5 6 5 4 2 3 4 3 2 3 4 4 4 5 6 3 5 3 6 2 6 4 4 4 5 6 6 6 4 2 3 6 5 5 2 5 7 7 8 9 7 7 6 6 6 5 4 4 3 2
6 4 4 4 6 9 4 1 3 4 1 3 1 7 6 5 9 5 5 5 4 3 4 4 2 4 4 7 12 5 3 10 9 7 7 7 8 5 6 7 4 3 4 5 3 4 3 2 1 2 5 5 2 3 3 4 5 4 5 2 4 4 5 5 6 6 3 3 5 6 4 6 3 6 8 7 7 8 8 7 7 7 7 6 6 6 6 5
6 4 5 5 6 8 7 4 5 4 1 1 5 6 3 8 7 4 5 3 3 3 2 4 4 6 7 8 10 6 3 6 3 6 9 7 7 4 5 5 6 4 4 8 6 1 1 1 3 4 5 4 2 4 1 5 3 4 3 2 2 3 4 4 6 5 2 5 6 4 5 6 3 6 7 5 5 6 7 7 7 8 7 6 6 6 6 6
5 5 5 5 4 5 7 8 8 5 2 4 6 1 7 7 5 6 6 3 4 5 3 4 6 9 12 11 10 8 7 5 3 7 9 7 8 6 3 2 5 7 6 8 9 7 2 1 1 4 5 4 3 1 1 4 2 2 3 5 5 5 4 3 4 3 4 6 3 4 4 5 4 3 4 2 3 5 6 7 7 8 7 6 6 6 6 6
6 5 5 6 5 5 5 4 6 7 3 6 3 5 7 5 4 6 5 2 3 5 6 6 8 11 14 13 10 9 8 6 7 10 9 6 9 9 5 4 5 6 6 7 8 6 5 5 3 2 2 3 4 4 3 3 3 3 5 6 5 4 3 4 3 3 6 4 3 4 4 6 6 0 4 5 6 5 5 7 8 8 7 6 5 5 5 5
8 4 6 7 6 8 8 3 5 6 4 5 2 6 6 4 6 5 3 3 3 6 8 9 10 12 15 13 10 11 10 7 8 10 9 8 8 8 8 7 4 5 6 6 5 5 5 4 4 4 3 2 5 6 6 7 6 6 7 6 5 4 3 4 3 3 5 1 6 4 2 5 6 2 7 7 8 6 5 6 6 7 7 6 5 5 4 4
10 6 6 8 7 10 12 7 4 4 5 4 5 6 5 6 6 3 3 4 2 4 6 8 11 12 14 12 9 11 10 8 9 9 8 8 8 8 8 6 4 5 4 2 3 4 5 6 5 6 5 2 5 5 3 4 5 5 5 5 5 5 5 5 4 3 4 1 6 4 1 5 5 3 7 7 8 8 6 6 6 6 6 5 5 4 4 4
13 8 6 8 8 9 11 11 9 7 6 5 6 6 6 7 3 1 4 4 3 3 4 8 12 12 13 11 9 11 8 6 10 8 7 8 7 7 8 7 7 7 4 3 4 4 4 4 5 4 3 2 2 4 5 5 4 4 4 5 6 6 6 6 5 4 4 2 4 6 3 5 3 4 7 7 9 8 7 7 6 5 5 5 4 4 4 4
12 6 4 6 7 7 9 11 10 7 6 5 6 6 7 6 3 3 3 3 3 4 5 7 10 11 11 9 8 11 6 4 10 9 7 8 7 7 7 7 9 7 5 4 2 2 7 2 6 5 3 1 1 2 3 6 5 2 2 6 6 4 5 6 6 7 7 7 3 5 4 2 2 5 8 8 8 9 7 7 7 6 5 4 4 5 4 4
7 2 1 2 2 4 8 9 9 6 5 6 6 7 6 3 1 1 1 2 1 2 5 8 10 10 10 8 8 11 5 3 10 10 7 8 6 5 4 3 5 7 6 4 2 3 6 2 9 6 3 3 3 1 1 5 4 1 3 5 2 3 5 7 6 5 6 8 5 4 5 2 4 5 9 9 9 9 8 7 7 5 5 4 3 4 4 5
2 0 1 3 1 3 7 7 7 6 6 6 7 6 3 2 3 3 3 3 3 2 5 9 8 7 9 9 8 12 9 5 9 8 7 8 5 4 5 3 2 6 7 5 3 1 4 2 8 6 3 5 2 2 2 2 4 5 5 3 3 1 4 6 6 5 5 7 5 4 6 4 3 3 8 11 10 10 9 7 7 5 5 4 3 4 4 5
3 4 1 4 1 4 6 6 6 6 5 6 8 6 3 1 1 3 4 4 3 4 8 7 5 5 8 9 9 12 11 8 9 8 7 7 5 3 6 5 3 3 5 5 4 1 3 4 6 6 2 4 3 4 5 6 4 6 6 4 4 5 4 4 5 6 6 7 5 3 4 5 5 2 7 11 10 10 9 7 6 5 4 2 3 3 4 5
4 5 2 4 3 4 8 6 6 6 6 7 7 6 3 3 3 3 4 5 4 5 8 5 4 4 6 7 8 12 12 9 9 8 7 6 5 3 4 3 3 3 4 6 4 1 2 5 1 6 4 1 4 5 5 3 5 5 5 4 5 5 5 4 4 5 6 7 7 4 3 3 1 3 3 4 8 10 9 7 5 4 3 2 3 4 4 5
5 3 2 5 2 8 8 5 5 5 6 6 5 3 2 4 5 5 4 4 5 4 4 3 5 6 5 4 5 8 9 8 8 8 7 6 5 4 4 3 3 5 5 5 4 1 3 3 3 4 5 3 3 1 4 5 3 4 5 5 5 4 4 5 6 6 6 7 6 6 6 1 4 5 5 3 3 6 7 6 5 3 2 3 4 4 5 5
5 2 3 3 5 9 4 5 6 4 6 6 5 5 3 4 6 7 4 4 5 4 3 3 2 5 6 5 4 6 7 7 7 7 6 6 5 3 3 3 3 6 6 5 5 3 3 3 4 3 3 3 2 4 3 4 4 6 6 5 4 4 4 5 7 6 5 7 6 6 8 1 5 2 3 5 4 5 5 4 3 2 2 3 4 5 5 5
5 1 4 5 5 3 4 6 4 3 5 4 3 4 4 4 6 7 4 3 5 4 3 2 1 3 4 4 4 5 6 6 6 6 5 5 3 2 3 1 1 4 4 2 3 2 2 3 5 5 4 3 4 3 2 2 2 5 5 5 4 5 6 6 6 4 3 5 3 6 8 1 5 3 4 5 5 5 4 2 2 1 2 3 4 5 4 4
2 2 4 6 3 2 5 6 3 3 5 2 2 5 5 4 6 5 4 4 4 3 4 3 1 2 2 2 5 7 6 3 3 3 4 4 4 6 4 2 1 4 5 2 4 3 2 3 5 5 2 1 1 2 4 4 4 6 5 3 4 4 4 5 6 5 4 6 4 6 7 1 5 4 4 5 5 4 3 2 1 2 2 3 4 4 3 4
3 2 3 6 4 4 5 4 2 3 4 2 4 6 6 6 7 7 6 3 1 2 3 4 2 2 3 2 5 6 3 2 2 2 2 4 4 5 3 2 2 3 2 1 2 3 3 1 3 6 5 4 4 4 5 5 5 5 2 1 2 4 4 5 5 4 6 9 7 7 7 1 5 4 4 5 4 3 2 1 1 2 3 3 4 3 3 4
4 2 3 5 6 6 5 3 4 3 3 4 6 7 6 6 6 7 7 5 2 4 2 4 2 3 6 5 5 6 2 0 2 3 2 4 6 4 4 2 2 1 4 5 3 1 2 1 2 6 7 6 5 2 0 1 2 3 3 3 4 4 5 5 5 5 6 5 4 7 7 2 7 6 4 4 3 2 2 1 1 2 3 4 4 4 4 4
3 2 2 4 6 5 4 2 4 5 3 4 5 5 6 7 4 4 6 5 4 3 1 4 4 5 7 7 7 7 3 2 3 5 5 6 6 4 3 3 2 5 7 5 2 1 1 2 3 5 7 7 6 4 3 4 4 4 4 5 5 5 5 5 6 6 5 4 4 5 5 3 2 5 4 3 2 1 1 1 2 3 5 6 6 6 6 6
3 1 1 0 2 4 4 3 3 4 3 3 3 2 4 6 4 4 4 3 3 5 2 2 5 6 7 8 7 6 5 4 5 7 6 6 7 6 4 4 6 7 6 3 1 1 2 3 4 5 7 6 4 3 2 3 7 7 6 7 6 5 5 7 8 5 5 6 6 2 3 5 5 0 2 1 0 2 2 3 4 5 6 7 7 7 8 7
2 2 2 2 2 2 1 0 3 5 5 4 3 3 4 6 5 4 4 3 4 6 4 4 6 6 6 8 7 6 6 6 6 7 6 6 7 8 7 6 6 6 7 4 1 1 4 4 3 4 7 6 4 4 4 4 7 7 8 8 7 6 6 8 9 7 5 7 7 4 3 6 7 3 1 1 1 3 4 3 4 5 7 8 8 9 9 8
3 2 2 1 3 4 5 4 5 6 5 3 3 4 5 6 5 3 3 4 7 8 6 5 8 8 7 7 6 7 7 5 5 7 6 6 6 6 6 5 6 7 7 5 3 1 4 3 2 4 8 7 6 5 5 7 8 8 9 9 7 7 7 7 8 6 6 9 9 7 6 8 7 3 2 2 2 4 4 3 4 6 7 8 8 9 9 8
3 3 2 3 4 4 5 5 5 6 3 2 2 2 3 6 5 3 3 5 7 9 7 7 9 9 7 6 6 7 6 3 5 8 7 7 5 5 5 3 4 7 7 6 4 3 3 2 2 3 8 8 7 6 6 8 8 9 10 8 7 8 8 8 8 6 7 9 9 7 9 8 2 2 2 2 2 3 4 4 5 6 7 8 9 9 9 9
5 3 3 5 3 2 3 3 4 5 2 2 1 3 4 5 4 4 4 6 5 5 6 8 10 9 6 7 7 8 7 4 5 8 8 5 2 4 5 2 3 6 7 6 5 5 5 3 2 4 8 6 6 5 6 7 8 11 12 10 9 9 8 7 6 5 7 8 7 7 8 5 2 3 2 3 4 5 5 5 5 6 7 9 10 9 9 9
7 3 2 5 3 1 2 3 4 4 1 1 2 5 6 5 5 6 5 5 4 4 5 6 11 10 7 8 8 8 8 6 6 6 5 3 2 1 2 1 4 7 5 6 6 5 5 5 3 5 7 4 4 3 4 5 7 9 6 4 6 7 7 7 5 6 8 8 7 7 5 3 3 1 4 5 5 6 6 5 5 7 8 10 10 10 9 10
Wind_Direction
328 326 325 323 320 318 316 314 313 313 313 311 309 308 310 313 317 321 326 322 321 321 317 317 314 314 317 318 323 323 324 323 309 244 230 252 223 198 178 169 167 166 164 161 164 165 174 193 187 198 233 234 240 285 305 269 275 268 279 40 47 44 52 30 28 46 56 85 128 159 180 187 165 172 181 185 209 226 180 179 173 156 161 113 112 123 134 144
325 324 323 320 318 317 315 314 312 311 311 311 309 308 311 315 320 323 323 319 317 317 315 314 312 315 319 323 327 325 329 319 278 250 237 237 185 166 164 167 167 163 162 165 172 172 175 195 194 203 242 262 211 291 312 264 267 296 335 55 56 32 50 36 30 59 52 70 115 160 179 192 178 169 184 200 194 204 194 177 183 170 154 137 130 134 141 148
323 323 321 319 317 316 314 313 312 312 313 312 309 309 313 318 323 322 318 316 314 315 313 312 313 316 321 327 326 329 334 301 254 234 215 194 170 161 164 171 167 161 165 173 181 175 162 219 205 211 266 285 34 354 326 0 291 323 340 50 59 30 56 67 42 79 61 70 111 151 167 179 175 172 185 206 201 203 209 191 194 190 172 157 145 145 149 155
323 321 321 318 316 315 313 313 313 314 313 311 309 309 315 322 324 318 314 312 310 312 310 310 314 317 326 328 325 336 320 272 215 97 138 164 165 168 170 175 170 163 171 186 189 190 204 210 204 233 276 293 31 343 347 26 328 335 352 33 50 17 49 75 75 111 100 85 113 139 160 168 163 178 189 204 213 208 219 211 213 210 170 162 156 154 158 163
321 320 319 317 315 314 311 312 314 314 314 310 308 310 320 323 320 314 310 309 309 311 309 309 315 319 329 325 328 338 289 242 115 96 144 158 164 171 173 178 173 166 181 194 187 202 215 204 216 249 275 321 17 18 20 28 308 329 43 34 33 355 27 62 83 124 148 137 129 131 153 157 160 181 199 208 216 206 230 216 223 227 165 163 163 162 166 170
319 318 317 316 314 312 311 313 313 313 312 309 308 315 322 319 316 311 308 309 309 310 307 311 318 323 328 325 339 309 270 347 98 125 154 160 165 168 171 176 174 173 193 197 192 209 214 221 233 286 303 345 20 22 22 24 310 352 58 39 22 354 5 46 92 148 197 191 119 109 136 161 189 195 201 215 218 190 172 54 219 211 167 167 165 167 173 176
317 316 315 314 312 312 311 311 312 312 309 307 312 318 319 314 312 309 309 310 309 310 308 313 324 328 329 329 334 250 244 64 79 134 161 164 162 164 168 173 176 180 199 204 205 218 225 249 276 324 318 16 16 14 18 7 278 346 26 28 22 353 314 4 108 165 205 258 73 336 196 197 239 235 202 223 218 199 201 82 171 172 164 172 170 174 181 180
316 313 313 312 310 312 310 309 310 309 306 308 313 316 313 309 311 311 310 309 307 308 307 317 331 334 339 342 286 236 188 60 58 131 168 164 156 162 166 171 181 187 204 211 216 243 261 285 338 337 329 23 2 358 6 329 194 357 0 14 358 305 250 259 189 172 193 133 97 249 245 225 290 288 267 248 218 199 206 192 169 161 164 177 177 180 184 183
313 312 311 309 310 309 308 308 307 307 308 309 310 310 307 308 314 311 308 307 303 305 308 322 338 344 354 331 275 236 108 44 77 140 162 161 155 163 166 173 186 193 206 212 225 255 281 334 7 349 329 353 344 349 351 327 47 359 345 356 322 303 172 234 208 180 187 167 198 245 255 189 348 286 267 248 198 186 199 186 172 171 172 179 182 184 184 184
312 311 308 308 308 307 307 305 305 310 309 305 307 304 303 310 315 309 307 302 295 302 305 319 344 354 347 289 263 218 87 65 127 134 155 159 156 165 175 183 186 197 214 218 232 254 290 331 352 331 307 314 331 341 347 341 355 336 328 334 301 284 163 213 210 184 188 183 202 250 282 71 24 271 241 96 122 175 193 183 174 179 178 181 184 184 186 185
313 310 307 307 306 305 304 303 308 312 306 304 302 297 303 312 312 308 301 291 290 296 299 319 350 359 316 269 262 159 90 82 132 142 157 161 163 172 187 193 188 203 221 227 240 259 283 313 325 303 299 332 322 319 359 350 331 322 324 318 247 197 172 194 206 187 193 187 181 248 285 248 219 247 298 73 107 172 181 176 177 183 178 180 186 181 184 185
315 310 307 306 305 303 301 303 310 308 303 300 295 296 305 312 309 301 287 278 281 278 292 313 343 14 308 259 265 89 92 96 140 150 162 167 171 181 194 197 196 212 229 245 255 268 279 295 300 296 329 333 314 315 358 334 313 313 317 312 241 176 177 184 201 187 203 180 137 233 264 208 203 191 95 85 135 164 167 175 178 182 177 176 184 181 183 184
316 312 307 305 304 301 300 303 305 303 300 293 292 298 305 308 302 288 271 265 268 266 279 303 353 11 283 242 115 97 100 106 139 150 167 174 180 192 202 203 206 221 243 264 283 293 277 283 289 301 320 310 316 338 312 290 291 302 289 304 290 178 150 156 187 178 195 148 127 231 258 115 139 123 103 117 153 166 168 175 176 177 178 177 181 182 183 186
318 313 309 306 303 300 301 301 300 299 294 288 290 299 303 300 284 270 259 251 251 244 261 320 19 331 265 163 96 170 162 115 145 157 171 180 181 185 193 204 210 221 242 254 277 292 280 285 281 285 286 283 311 314 288 263 271 306 274 261 307 18 104 129 167 176 181 137 175 245 0 90 89 76 194 200 175 177 172 170 174 177 181 180 179 186 186 189
320 315 310 305 301 300 299 297 297 294 287 286 296 305 301 283 260 249 240 227 231 222 31 355 19 263 252 159 118 178 147 142 166 171 177 180 183 179 177 189 198 206 217 226 248 272 272 274 272 284 296 275 278 285 285 253 183 313 301 207 18 9 95 120 144 191 186 112 186 248 338 89 81 62 88 171 180 184 176 164 172 180 185 186 180 189 195 192
322 315 309 304 302 299 295 295 293 287 285 293 305 305 291 261 219 219 214 194 212 160 84 329 219 259 267 140 127 155 168 169 169 171 180 190 201 161 145 163 178 187 194 201 224 238 238 256 270 286 294 274 266 289 291 228 169 113 342 16 28 1 49 111 127 178 220 128 181 233 302 71 94 85 98 147 179 186 175 167 176 183 185 192 186 190 204 202
324 315 309 304 304 299 293 292 285 282 292 307 310 298 219 154 172 175 158 178 223 140 169 295 280 262 271 113 143 178 173 157 148 162 177 195 207 144 140 158 163 167 178 184 199 217 217 243 266 253 255 260 271 289 272 227 118 74 345 2 45 3 357 62 110 131 184 222 206 215 254 344 114 117 107 145 182 193 180 174 177 187 189 190 191 193 205 206
325 318 311 305 302 296 291 285 279 285 309 323 320 156 130 133 143 131 135 135 123 164 234 274 262 257 208 159 171 158 135 131 139 156 169 180 187 171 167 171 161 164 184 197 197 211 214 224 262 266 248 236 241 265 277 14 8 342 341 341 358 0 9 28 58 104 177 236 241 215 228 265 148 146 112 144 183 202 196 183 174 187 192 187 194 196 206 213
329 322 313 302 295 289 283 275 275 292 327 99 112 115 117 125 130 149 187 181 192 223 255 176 204 285 124 145 133 107 113 126 145 161 167 167 174 186 191 191 193 197 214 217 188 198 243 246 242 257 248 220 337 312 325 350 338 326 327 317 327 331 27 41 60 79 286 235 219 230 242 257 178 162 160 150 169 206 210 196 178 182 185 187 200 193 201 221
333 324 311 297 290 283 274 265 268 279 167 142 128 130 146 177 201 173 181 210 229 266 318 189 214 281 103 124 104 111 135 149 178 183 170 167 175 184 189 201 209 217 235 242 197 154 283 270 245 257 303 349 352 330 317 322 317 307 297 289 308 301 24 51 77 97 252 236 185 257 271 284 297 211 187 164 170 202 208 198 189 182 180 184 200 194 194 216
334 324 310 296 287 274 262 257 239 198 182 158 153 198 267 319 289 86 172 216 220 243 263 254 260 277 280 100 83 130 157 172 192 183 169 174 187 186 180 199 214 215 221 237 259 194 257 263 253 294 336 339 320 315 305 293 279 276 283 293 277 267 29 57 62 90 201 233 126 159 258 151 45 30 66 183 199 198 192 195 191 179 179 178 191 198 195 206
334 324 310 296 283 264 252 244 214 199 185 169 187 242 313 11 336 345 320 250 204 209 235 234 257 268 261 247 234 257 224 182 172 172 167 176 194 194 172 192 218 213 193 214 239 231 229 243 241 43 357 291 257 270 269 264 262 260 264 274 266 315 24 112 97 93 184 242 117 166 242 104 81 61 80 104 230 211 185 197 192 176 182 182 183 192 198 205
334 326 311 295 280 257 235 217 211 207 179 177 217 251 301 355 314 290 268 277 202 172 203 209 225 230 214 218 197 206 215 180 167 167 170 182 194 200 184 191 214 213 198 213 229 237 223 178 73 39 286 230 231 234 244 251 244 243 262 269 273 15 304 194 95 103 180 264 0 274 253 124 120 146 106 76 94 172 242 212 206 196 186 185 181 184 202 209
337 327 311 296 272 240 204 194 217 213 183 199 244 255 277 299 295 256 240 277 238 165 184 196 224 226 199 169 171 193 205 174 168 160 171 188 179 179 195 195 210 217 218 222 231 254 272 30 50 312 226 235 246 223 230 254 234 196 258 285 296 344 301 320 54 117 189 217 228 260 245 166 148 152 117 98 107 111 140 170 165 168 166 182 200 199 211 219
334 325 311 291 259 212 168 178 202 197 189 213 240 233 278 304 278 230 242 266 210 157 163 183 211 215 177 141 171 193 192 167 169 154 173 196 174 162 189 194 221 219 207 219 235 253 269 22 45 243 220 232 255 231 211 274 279 148 114 324 316 313 294 287 251 234 235 201 188 247 258 168 144 133 110 117 116 100 108 135 130 126 146 173 195 203 215 226
325 324 305 269 241 181 159 150 161 179 200 206 208 220 288 305 220 200 247 264 203 150 152 177 182 172 167 164 168 183 189 170 135 135 169 199 186 183 205 176 219 244 200 226 253 254 236 102 196 254 256 232 246 226 161 271 281 135 80 8 316 291 276 265 255 263 279 23 142 236 277 204 149 138 119 123 114 104 103 105 108 113 126 140 143 138 192 244
314 314 287 256 204 177 163 76 154 176 197 167 176 264 297 280 185 186 248 241 196 152 152 163 166 164 166 168 166 178 175 139 123 149 176 194 182 202 228 180 195 232 215 246 244 196 167 190 202 238 268 239 233 195 130 255 283 60 67 357 307 285 271 269 266 268 295 349 184 211 264 283 197 136 133 135 118 109 105 98 98 97 93 91 89 89 76 46
301 284 271 251 204 195 198 45 183 205 158 118 236 290 295 199 178 199 255 222 157 138 151 131 120 159 153 165 179 198 112 132 155 166 167 192 187 202 229 218 233 205 192 248 239 114 132 225 254 292 275 245 247 50 90 254 278 65 74 313 307 294 276 278 271 271 298 285 240 191 210 267 242 134 147 160 135 117 111 105 99 91 85 83 80 78 75 67
291 245 252 246 221 221 233 234 232 239 157 57 308 301 205 178 187 231 259 235 149 152 149 127 148 168 156 164 188 205 153 161 183 134 145 185 200 231 253 243 264 250 219 252 269 340 68 349 331 300 275 262 342 35 347 271 296 78 106 233 231 239 256 264 267 278 277 262 263 170 177 268 271 139 153 183 166 134 121 113 102 95 89 82 80 77 76 74
296 233 237 232 216 230 237 237 240 228 209 304 320 250 171 184 219 229 219 209 160 146 127 150 165 165 162 168 185 196 183 161 106 132 156 180 191 217 278 282 262 257 236 239 254 270 276 129 245 260 278 306 327 357 283 285 318 105 207 233 221 216 222 244 262 286 263 249 235 148 177 262 273 143 129 140 133 126 127 125 115 108 100 86 82 80 75 75
320 242 223 213 200 208 219 217 213 210 247 314 333 167 190 206 244 231 196 164 167 147 151 170 162 160 172 179 178 184 189 159 138 158 168 172 184 201 226 215 222 237 233 226 226 232 220 193 170 178 266 295 259 224 185 195 220 233 250 260 260 234 207 225 215 210 256 255 118 124 173 232 256 207 97 108 114 120 125 127 126 120 109 96 86 79 74 74
341 271 226 221 215 214 222 197 163 201 273 316 222 198 220 216 222 232 163 151 185 166 168 170 164 171 183 188 177 174 184 170 163 179 180 183 190 196 212 214 202 214 223 212 192 194 199 176 121 131 165 252 247 222 186 184 203 231 249 262 275 270 250 247 227 214 260 239 108 112 158 230 258 80 109 127 130 130 115 111 119 117 112 104 93 86 81 69
344 314 249 234 228 221 233 239 213 243 300 300 227 221 244 226 213 218 167 172 156 144 161 165 170 178 184 190 179 169 178 169 170 185 186 192 202 197 204 228 264 264 248 204 206 213 178 144 157 176 161 193 254 254 222 188 196 232 267 286 285 290 290 277 263 254 268 144 122 122 195 248 255 112 121 133 128 127 121 112 107 104 106 100 93 88 88 81
331 313 269 245 243 233 236 241 241 274 306 271 227 217 229 225 200 149 179 159 100 124 153 159 169 177 188 196 175 167 183 170 168 182 182 191 211 205 197 208 231 257 276 251 245 250 232 165 161 168 118 152 258 319 337 328 286 273 307 302 284 286 286 285 293 294 306 333 142 152 204 261 260 122 122 125 127 132 130 121 114 113 114 108 101 91 81 82
329 312 273 251 253 237 231 236 238 267 288 248 227 214 217 218 181 165 171 113 107 157 151 162 176 179 187 195 174 176 206 188 173 189 193 195 210 209 202 189 195 224 258 245 207 233 260 241 107 94 63 45 349 24 345 307 281 284 311 270 270 292 281 281 295 299 307 303 244 192 226 281 92 130 133 133 140 140 135 135 136 130 125 122 111 91 67 58
348 9 313 231 252 221 219 231 231 246 260 235 224 216 219 250 10 109 87 35 332 170 154 172 186 190 185 183 179 184 211 207 178 189 198 205 215 208 204 152 169 210 234 250 225 198 247 189 116 127 126 78 7 11 329 299 298 327 279 267 331 0 295 283 279 264 268 275 261 233 246 191 137 163 157 154 158 151 151 153 144 133 129 129 102 77 51 37
342 294 82 121 155 211 210 223 218 226 242 232 231 228 235 320 19 33 26 356 311 242 192 182 184 204 189 178 185 183 186 188 182 192 194 193 207 210 202 162 145 219 234 262 270 213 273 221 134 157 166 106 68 288 218 252 296 294 289 339 25 315 262 270 273 261 253 264 256 229 248 243 225 199 160 165 174 165 163 159 147 147 148 133 95 74 44 24
253 243 138 88 24 213 196 199 202 219 233 230 238 247 267 293 33 7 349 331 302 236 221 198 177 219 201 183 182 175 177 181 177 192 197 180 183 197 198 181 148 217 239 253 250 137 280 262 147 157 186 122 146 247 231 192 218 275 303 334 294 262 250 224 245 272 270 273 275 235 232 256 262 213 156 178 188 172 164 162 159 158 148 119 77 65 38 19
242 236 141 48 1 178 172 182 202 227 228 224 231 230 243 260 274 311 318 306 285 229 226 211 169 216 218 189 172 167 181 192 176 187 206 188 176 170 191 186 152 175 209 224 235 142 232 269 188 140 140 163 202 233 262 210 185 226 266 259 238 265 287 261 257 283 278 282 289 274 242 247 288 48 93 176 188 174 166 166 167 151 121 88 44 27 18 9
245 241 99 34 53 145 153 194 227 233 220 227 244 228 238 274 276 292 307 289 274 240 235 224 180 193 199 177 164 166 187 206 192 197 202 177 169 168 177 191 160 146 164 202 228 222 190 252 275 146 148 240 236 203 319 320 277 245 253 243 222 224 259 272 271 265 268 280 285 280 275 307 67 45 43 61 135 156 156 158 157 138 91 55 31 15 7 357
255 246 101 79 124 136 154 225 227 230 224 235 257 247 265 306 289 288 295 263 257 262 268 274 221 186 178 176 172 167 185 204 204 207 198 183 198 201 160 178 173 149 160 194 203 215 220 233 265 254 217 247 355 39 340 315 303 285 283 280 270 258 255 265 260 239 242 270 280 283 282 3 75 54 74 81 83 104 123 140 139 116 47 26 16 11 3 347
251 275 103 123 133 137 243 232 206 236 240 244 279 261 275 312 287 286 299 248 234 239 232 242 240 165 160 158 150 162 178 188 201 207 201 192 189 86 88 102 208 180 192 196 132 109 315 267 258 277 290 304 1 12 254 233 265 267 273 285 288 276 264 264 271 269 246 254 273 278 274 11 81 76 93 102 101 101 108 106 97 42 18 11 356 1 355 336
262 11 109 149 161 303 262 230 192 213 233 255 313 272 257 267 268 274 290 266 233 214 198 185 175 140 122 123 146 163 170 168 188 194 184 166 108 59 62 103 214 213 219 221 118 132 253 259 257 268 262 216 173 157 181 189 228 238 231 243 269 283 286 284 297 318 289 268 275 266 261 150 97 95 94 110 116 115 119 90 47 317 347 353 343 347 329 318
325 347 133 170 212 276 267 251 238 217 226 260 274 256 237 245 261 262 268 272 241 232 198 157 135 115 115 126 148 155 167 182 171 153 160 156 110 58 66 122 236 220 207 329 94 163 221 222 253 273 265 227 205 180 172 181 214 241 227 188 262 282 288 282 283 283 266 269 280 275 275 76 109 126 121 133 138 136 141 117 312 308 339 335 332 330 304 305
297 245 156 167 202 249 270 305 319 289 278 277 265 256 239 229 237 246 262 270 270 286 256 132 114 113 128 142 137 133 147 271 152 156 150 134 119 90 88 122 261 200 76 33 34 166 249 261 244 273 281 279 283 299 1 198 222 245 244 229 244 260 264 273 274 262 258 259 254 262 274 99 125 148 150 147 153 165 182 209 290 322 337 327 326 325 315 312
297 228 189 166 184 232 253 266 288 279 297 296 271 253 239 229 207 199 237 246 226 251 267 122 140 146 144 154 142 130 129 74 118 163 163 142 129 107 97 126 117 104 97 67 16 228 247 258 241 263 277 291 315 341 0 327 286 268 258 244 246 261 268 270 265 268 290 288 258 260 281 281 175 161 162 164 167 212 245 297 330 333 332 326 323 322 320 314
302 293 346 14 193 223 220 200 250 279 309 310 296 282 245 239 218 175 200 227 198 195 191 131 170 176 161 163 151 126 124 116 125 149 149 140 131 116 124 136 112 117 133 122 339 256 248 241 216 231 259 275 306 313 313 291 273 276 283 269 260 260 259 256 257 281 330 293 273 27 33 288 286 194 160 188 234 301 313 338 337 328 323 319 316 315 315 310
326 330 33 2 277 247 241 293 318 302 287 273 278 287 266 245 230 201 191 198 196 201 203 177 189 192 164 163 158 138 142 141 138 147 144 145 147 140 153 161 139 158 186 179 140 240 270 258 206 223 255 258 267 270 263 262 265 271 276 273 271 265 258 259 262 277 300 276 278 359 18 283 292 317 351 31 351 315 331 347 329 316 310 307 307 307 308 308
352 334 78 342 285 301 317 316 307 291 272 265 265 258 263 260 245 227 208 190 187 199 218 195 182 180 162 158 156 149 157 158 148 157 164 165 170 174 176 172 158 175 201 196 144 196 275 260 187 252 265 253 243 251 256 263 267 266 263 263 264 264 263 266 270 272 269 270 283 304 293 279 286 313 358 18 347 322 332 327 305 302 301 301 301 303 306 307
355 351 7 305 278 287 291 285 286 275 236 207 244 258 280 271 265 268 253 228 194 185 205 203 175 162 157 161 162 154 151 144 143 157 176 176 177 202 209 202 181 184 207 214 166 164 249 243 146 251 266 251 234 241 255 260 268 272 268 262 255 258 256 253 258 258 253 264 274 278 279 276 258 84 14 321 303 299 289 288 292 297 302 302 301 303 305 305
338 325 322 302 289 281 283 280 280 272 236 192 284 349 323 273 291 316 269 256 246 205 211 200 166 150 160 174 162 140 128 112 119 141 168 176 168 208 212 226 220 203 208 215 192 182 215 235 187 232 262 253 211 226 255 258 266 265 260 257 250 247 248 250 254 252 256 273 277 266 274 284 111 94 323 271 253 267 278 291 300 303 306 303 299 301 303 305
337 296 279 293 281 235 290 290 270 260 259 45 347 332 310 284 306 308 257 232 251 268 271 210 165 155 172 170 142 116 112 103 87 102 138 137 69 192 209 249 244 238 228 210 207 203 217 246 242 231 261 256 176 203 262 258 261 257 245 251 252 243 245 250 249 246 251 265 274 271 292 7 66 345 288 275 271 290 306 309 301 304 306 300 297 300 303 306
Height
808 807 806 805 804 804 803 802 801 800 800 799 798 797 796 795 795 794 794 793 792 791 790 789 787 787 786 785 784 783 782 781 781 782 780 776 775 776 776 778 779 780 782 784 785 785 784 784 784 784 785 783 783 783 782 781 778 783 788 793 801 802 803 801 798 797 797 798 796 794 794 798 802 797 791 790 794 794 792 793 790 789 789 790 793 794 797 801
808 807 806 805 804 803 802 801 800 800 799 798 797 796 795 795 794 794 793 792 791 790 789 788 787 786 785 785 784 783 781 780 780 779 776 774 775 775 776 777 779 780 781 783 783 782 783 784 783 783 784 784 782 781 784 781 780 787 787 792 803 801 796 793 792 792 792 795 794 792 792 794 798 795 792 797 802 796 797 797 793 795 794 792 793 795 798 800
807 806 805 804 803 802 801 800 800 799 798 797 796 795 794 794 794 793 792 791 790 789 788 787 786 785 785 785 783 782 781 780 779 776 772 773 775 775 776 778 778 780 781 782 782 781 782 783 781 782 785 786 781 781 786 782 782 786 786 795 800 794 792 789 789 790 788 789 792 792 790 792 794 791 791 799 802 798 800 799 796 799 797 795 793 794 797 799
806 805 804 803 802 801 800 799 799 798 797 796 795 794 794 793 793 792 791 790 789 788 787 786 786 785 785 783 783 783 781 782 778 772 771 773 774 775 776 778 778 780 781 782 782 781 781 781 780 781 787 789 781 781 786 784 784 785 786 796 795 789 792 790 787 788 785 786 790 791 790 794 791 787 791 797 803 804 798 793 793 794 793 794 793 793 796 798
805 804 803 802 801 800 799 799 798 797 796 795 794 794 793 793 792 791 790 789 788 787 786 786 785 784 784 783 783 782 783 789 779 769 772 773 773 775 776 778 779 781 782 782 782 781 781 780 781 783 787 788 783 784 787 781 782 787 787 789 788 787 792 788 784 786 785 785 789 791 794 793 788 789 792 795 804 806 795 788 786 786 787 790 791 792 794 796
805 803 802 801 800 799 798 797 797 796 795 794 794 793 793 792 791 790 789 788 787 787 785 785 785 784 784 782 782 782 785 789 776 768 773 772 774 775 776 778 779 781 782 782 780 780 781 780 784 788 787 786 786 787 787 780 780 790 788 784 785 786 790 787 783 786 784 786 791 792 790 787 790 794 791 792 798 796 787 782 782 782 783 787 789 791 793 795
803 802 801 800 799 798 797 797 796 795 794 793 793 792 792 791 790 790 788 788 787 786 785 785 784 784 783 782 783 781 780 779 770 770 773 771 775 775 776 779 779 782 782 781 780 780 781 782 786 787 786 788 788 786 785 781 781 791 792 785 786 786 787 784 782 784 784 787 789 786 786 788 794 795 790 791 790 786 783 780 780 781 782 785 788 790 792 793
802 801 800 799 798 797 796 795 795 794 793 792 792 791 791 790 789 789 787 787 786 785 785 784 784 783 782 782 781 778 775 773 770 771 771 772 775 775 778 780 780 782 780 780 779 778 780 784 785 783 788 789 786 785 782 784 786 789 790 786 785 785 785 782 781 784 784 786 786 785 789 791 791 790 790 790 785 781 780 779 780 781 783 786 788 789 790 792
801 800 798 798 797 796 795 794 793 793 792 791 791 790 790 789 789 788 787 786 785 786 785 784 785 783 783 782 779 779 777 772 771 771 771 773 775 776 779 779 781 781 779 780 777 779 781 783 783 782 789 787 783 784 781 786 791 786 784 784 785 785 784 783 783 785 786 786 786 790 793 790 785 787 791 785 780 779 777 779 781 782 785 786 787 788 789 791
800 798 797 796 795 795 794 793 792 791 791 791 790 790 789 789 788 787 786 786 785 785 784 784 785 783 784 782 780 783 777 770 772 772 772 774 775 777 779 779 780 779 779 779 778 779 779 781 780 777 782 784 782 783 780 786 787 779 779 781 783 785 783 784 786 785 786 786 787 793 795 790 785 790 794 783 776 778 778 781 781 783 786 786 787 787 787 790
798 797 796 795 794 793 792 792 791 790 790 790 789 789 788 788 787 786 786 785 785 785 785 784 784 783 784 782 781 781 774 771 774 772 774 775 776 778 778 779 779 779 779 777 778 778 777 778 776 776 782 783 781 781 779 779 778 775 778 782 783 784 785 785 787 787 787 789 787 790 794 792 790 793 793 783 776 777 780 784 783 784 785 785 786 786 787 788
797 795 794 793 793 791 791 790 790 790 789 789 789 788 787 787 786 786 785 785 784 785 784 784 784 784 783 782 779 775 772 773 774 773 775 776 777 778 778 779 779 779 778 777 777 777 778 777 776 782 783 781 784 785 780 774 774 775 778 786 785 785 791 789 788 787 788 791 785 788 799 799 796 794 787 780 778 777 781 785 784 785 784 784 786 786 787 787
795 794 793 792 791 790 790 789 789 789 788 788 787 787 787 786 785 785 785 785 785 784 784 784 784 783 785 781 773 771 772 773 773 774 775 776 777 778 778 779 778 779 779 777 777 777 779 778 777 781 778 781 786 781 776 770 773 778 779 786 785 787 795 790 787 788 790 791 784 791 808 804 796 790 783 779 778 780 785 785 784 785 784 785 786 787 788 787
794 793 791 790 789 789 788 788 788 787 787 787 786 786 786 785 785 785 784 785 784 785 785 784 784 784 784 777 770 771 772 773 774 774 775 776 776 777 778 778 778 779 779 779 779 778 779 777 777 778 775 779 779 773 774 773 775 779 782 785 783 790 797 790 787 789 794 791 782 793 807 803 795 789 783 779 778 782 786 785 784 785 785 786 787 788 788 787
792 791 790 789 788 787 787 787 787 786 786 786 785 786 785 785 785 784 785 785 784 785 784 784 784 784 782 775 770 771 772 773 774 774 775 775 775 775 776 777 778 779 779 779 779 779 779 777 779 781 778 774 774 780 782 779 778 780 789 794 786 789 795 791 788 787 794 793 784 795 804 799 795 789 782 778 778 782 785 785 784 786 787 787 788 788 789 787
791 790 788 788 787 786 786 786 786 785 785 785 785 785 784 784 784 784 785 784 785 785 785 785 784 784 784 776 770 771 772 772 772 773 775 774 774 774 775 777 777 778 779 778 779 778 778 778 778 780 780 777 779 786 785 785 786 782 789 799 794 792 792 791 792 785 787 793 790 797 801 797 794 787 780 778 778 780 784 785 784 786 787 787 788 788 788 788
790 788 787 786 786 785 785 785 785 784 784 784 784 784 784 784 784 785 785 785 786 785 785 785 782 784 782 771 771 772 768 769 771 773 774 774 774 774 775 776 775 776 777 777 779 778 777 779 780 779 780 781 782 785 794 800 798 790 789 794 794 792 791 792 796 788 785 792 794 795 797 794 790 785 780 778 778 780 783 785 785 785 786 786 787 788 787 788
788 787 786 785 785 784 784 784 783 783 784 784 783 784 784 784 785 785 785 785 785 785 787 785 783 789 785 772 771 770 766 769 771 771 774 774 774 775 774 774 773 775 778 780 780 778 780 779 781 786 785 783 782 786 800 805 801 800 797 796 794 790 789 791 794 790 787 793 794 794 796 792 786 783 781 778 777 781 782 781 783 783 784 786 786 787 787 787
787 786 785 784 784 783 783 783 783 783 783 783 784 784 784 785 785 785 786 786 785 784 785 782 780 786 783 770 766 765 765 768 770 771 772 773 774 774 773 773 772 775 783 788 784 780 782 784 787 793 790 785 785 786 794 795 793 797 796 796 797 792 789 788 790 788 786 793 794 792 794 790 786 784 782 779 777 781 782 780 782 783 784 786 786 786 787 788
786 785 784 783 783 782 782 782 782 782 783 783 784 785 785 784 784 785 784 783 778 774 774 773 771 774 772 766 764 765 767 769 769 770 771 772 773 774 774 774 775 781 787 791 788 779 783 795 796 792 788 784 784 784 786 786 788 792 792 792 792 792 790 785 789 789 785 793 793 789 791 789 786 784 780 779 779 782 783 783 783 783 784 786 786 785 786 787
785 785 783 782 782 781 781 781 781 782 782 782 783 784 781 779 782 783 779 776 769 765 769 767 766 769 768 766 765 764 767 770 769 767 771 771 770 777 778 777 786 792 787 786 787 781 787 801 794 783 782 781 782 783 784 786 788 791 791 791 789 788 788 784 787 788 785 792 792 789 791 790 787 786 782 780 782 782 781 782 783 782 783 784 785 785 785 785
785 784 782 782 781 781 781 781 781 781 782 783 783 780 775 775 778 778 776 776 768 763 767 766 767 768 764 764 765 764 768 774 773 769 769 770 771 779 780 781 791 792 784 786 791 792 796 797 785 777 778 780 782 783 785 788 788 789 787 790 791 785 784 786 787 787 786 790 792 789 790 790 789 786 784 783 782 780 777 778 779 780 783 784 784 785 784 785
784 782 782 781 780 780 780 780 781 781 781 782 781 778 775 776 776 775 777 778 773 765 765 767 769 768 766 766 764 766 770 773 776 772 766 770 774 775 779 785 790 789 787 791 794 798 798 788 777 776 778 782 786 785 787 788 785 786 786 789 790 784 787 794 792 789 788 788 790 790 789 789 789 787 785 784 782 781 779 777 777 777 781 782 781 783 784 785
783 781 781 780 780 781 779 780 781 780 780 780 780 777 776 776 775 776 776 775 775 768 762 763 763 764 764 763 761 766 769 767 770 771 765 769 774 773 777 782 787 791 790 788 791 795 791 779 773 778 781 783 787 786 786 787 783 781 783 788 787 783 786 790 789 790 790 788 788 791 794 791 789 790 789 785 783 784 782 780 780 779 779 780 780 780 781 781
782 781 780 779 780 780 780 781 780 779 780 779 779 777 776 776 774 776 777 778 778 770 763 763 762 761 758 759 762 761 764 765 763 764 762 763 770 776 779 778 784 793 789 785 790 793 786 775 773 781 783 782 786 785 783 784 784 782 783 782 782 782 784 784 786 790 794 796 789 789 804 801 788 790 792 786 786 787 784 782 784 783 780 780 781 780 779 778
781 780 779 780 780 780 781 780 778 780 779 777 777 776 775 775 774 775 779 783 781 772 769 767 765 763 757 760 760 757 770 773 759 757 762 762 762 770 781 781 782 788 785 784 787 785 780 774 776 782 781 781 784 782 778 779 784 788 783 777 778 780 783 784 786 790 796 798 789 785 802 805 792 792 791 787 789 790 787 786 784 783 781 780 780 779 778 777
780 779 779 779 779 780 780 778 778 779 777 776 775 775 775 774 774 775 782 794 787 769 768 769 764 761 758 758 755 763 783 776 761 762 761 763 763 765 781 785 784 785 780 784 793 785 777 778 779 780 779 782 783 780 776 775 784 789 779 776 780 781 784 784 785 789 788 788 788 782 790 801 798 795 789 784 791 794 791 791 787 783 782 781 780 779 778 777
779 778 779 779 779 780 778 778 779 776 775 775 774 775 774 773 775 776 788 806 789 762 762 765 760 756 754 755 754 764 772 764 771 774 758 761 766 768 782 783 781 783 776 786 799 783 774 781 782 780 784 783 777 775 773 773 782 782 774 775 779 780 783 781 782 785 781 790 798 785 785 802 800 791 787 784 790 797 796 794 791 787 785 783 781 780 778 778
778 777 778 778 779 779 779 779 777 775 775 774 774 774 773 774 776 778 793 802 780 758 758 760 760 759 758 761 762 764 763 761 773 771 758 765 766 767 781 778 775 782 777 782 791 780 772 776 776 780 786 780 773 771 770 774 779 775 772 776 777 778 780 780 783 783 786 801 805 787 786 803 800 786 785 787 790 795 795 792 790 788 787 785 783 781 779 778
777 777 777 777 778 779 779 778 776 775 774 773 774 773 773 777 779 790 806 796 773 763 760 760 764 763 764 771 772 767 766 767 767 765 766 769 766 768 772 769 772 781 780 780 783 776 769 768 770 775 778 773 770 771 770 773 774 772 775 777 777 777 777 782 782 783 800 809 799 786 786 800 804 788 780 787 788 786 788 790 790 788 787 787 784 782 781 779
776 776 776 776 777 778 777 776 775 774 774 774 774 772 775 780 782 798 803 778 765 768 764 764 766 762 765 774 775 772 770 769 766 771 776 774 774 777 777 778 780 785 787 784 780 774 770 773 773 770 769 768 772 773 771 771 771 774 778 778 784 785 783 790 789 793 813 812 793 785 784 796 808 794 780 785 784 780 784 787 789 789 789 788 785 783 781 780
776 775 775 775 776 776 775 774 773 774 774 774 774 772 778 789 792 793 784 768 771 773 763 765 766 763 766 768 770 771 772 772 769 771 776 777 781 781 782 784 782 792 798 788 782 779 774 774 772 769 768 767 775 778 775 773 773 777 778 781 796 802 801 807 805 803 809 803 790 786 789 799 799 785 780 783 782 780 782 783 785 787 788 788 786 784 782 780
776 775 775 775 774 775 774 774 774 774 774 773 774 772 781 799 797 780 769 770 773 764 755 759 761 761 766 768 770 768 769 773 770 769 771 773 779 778 777 775 773 787 795 786 786 787 782 777 771 774 773 766 772 780 781 778 775 778 778 785 801 811 820 825 813 805 805 796 787 786 795 802 791 779 778 779 779 780 780 782 784 785 787 788 785 783 782 781
775 773 774 773 773 773 773 773 774 773 773 773 774 778 791 801 786 768 766 767 763 757 755 758 760 763 767 768 768 765 771 776 769 770 775 775 782 782 777 777 774 778 784 786 789 788 794 793 778 776 777 769 770 774 776 776 775 774 771 780 795 801 814 822 810 806 805 795 791 794 800 798 790 784 776 773 776 777 778 781 783 785 785 785 784 782 782 781
773 772 772 771 772 772 771 773 773 773 774 772 775 786 796 792 773 765 767 762 758 760 758 757 761 769 771 767 764 760 767 775 769 771 777 777 781 780 775 776 775 775 782 792 790 785 796 795 775 771 771 769 774 771 767 775 781 775 768 781 792 785 790 801 799 798 800 800 798 797 792 782 780 780 772 773 778 777 780 782 782 786 784 783 785 784 783 782
771 771 771 771 771 770 771 772 772 773 772 772 782 789 785 774 765 763 763 759 760 761 762 764 765 772 776 771 770 765 763 768 770 773 776 775 775 774 772 772 771 774 779 786 787 786 796 792 772 771 772 769 774 771 766 776 784 780 778 786 781 769 777 795 799 791 798 812 803 788 785 777 778 783 774 775 782 780 783 784 783 786 784 784 786 785 785 784
772 771 770 770 770 770 771 771 771 773 771 774 785 785 772 764 761 760 758 758 760 758 764 772 769 769 774 774 773 770 766 768 771 774 777 778 776 773 772 772 770 770 770 775 780 780 789 790 774 772 780 773 768 769 768 768 774 782 788 782 771 770 776 790 805 804 805 816 799 783 789 786 785 791 782 779 785 784 784 784 784 786 785 786 786 785 787 784
772 771 769 769 770 770 770 771 772 771 770 777 785 780 770 764 759 756 757 757 759 760 763 768 766 764 768 771 771 767 768 774 774 775 776 778 778 772 770 773 773 770 767 771 779 777 782 793 781 770 779 775 765 773 778 770 767 775 779 773 777 793 793 791 808 813 811 815 800 785 791 787 782 784 782 782 785 784 785 786 786 786 785 786 786 785 786 784
771 769 769 769 769 769 770 772 770 769 774 782 785 777 768 764 757 753 754 756 758 762 763 759 759 763 762 761 764 764 768 772 771 773 775 776 779 773 767 770 773 772 768 768 777 776 777 796 794 774 772 774 770 777 785 779 771 770 773 772 776 790 793 789 795 798 804 812 805 796 794 786 779 775 775 779 777 778 786 788 787 787 785 786 786 786 786 786
768 768 770 769 769 770 770 771 770 772 778 779 776 770 765 763 758 751 750 754 756 758 759 755 755 762 763 758 759 761 765 767 765 769 771 771 776 776 768 768 771 772 770 768 773 775 777 793 799 781 772 778 780 780 783 783 780 778 781 782 780 781 783 787 787 783 793 806 807 808 802 788 781 778 777 778 775 775 783 786 787 787 785 786 786 786 787 787
766 769 772 769 770 770 770 773 773 773 775 773 769 767 765 763 760 753 749 751 753 751 751 753 753 755 759 760 760 760 764 767 764 765 769 767 773 778 770 766 768 769 772 775 775 776 779 788 794 787 780 783 783 778 777 781 782 782 783 780 780 781 784 798 800 784 783 795 799 805 805 791 782 780 778 779 779 779 782 785 787 787 786 787 786 786 787 787
768 772 772 769 771 770 771 775 772 771 773 770 766 765 763 762 760 756 751 749 751 749 746 751 752 752 754 757 759 760 762 768 767 766 769 767 768 773 769 766 766 765 770 776 775 773 776 783 791 791 785 782 781 776 775 778 778 780 782 778 778 780 784 800 807 791 785 789 789 795 802 794 784 778 778 781 782 783 784 785 787 787 786 787 786 785 786 786
769 772 771 770 770 769 773 776 772 772 771 764 762 761 760 761 760 757 754 751 751 749 748 751 751 752 755 754 756 759 761 768 771 767 768 768 768 771 769 767 768 766 768 775 775 775 778 785 793 793 785 781 779 776 775 777 779 782 781 777 780 783 781 787 792 790 793 792 789 797 803 796 788 781 779 782 783 784 785 785 787 787 785 785 786 786 786 786
770 769 767 769 770 769 774 776 772 771 768 763 765 763 758 758 759 757 756 753 750 749 750 752 750 751 754 752 754 758 762 770 774 769 767 769 771 771 768 767 769 768 769 773 774 776 782 789 795 800 799 795 790 788 786 784 783 782 779 779 782 782 783 787 785 789 799 793 789 801 802 792 789 784 781 783 784 785 786 785 786 786 785 786 785 785 785 785
772 769 766 766 768 769 771 770 769 771 769 768 769 765 760 758 754 753 755 752 749 748 750 751 749 748 751 753 756 759 760 765 772 771 769 770 772 770 768 769 768 767 770 772 768 770 782 789 793 803 811 809 805 801 797 790 783 780 780 782 784 782 786 791 789 795 803 794 790 800 796 788 787 786 784 784 784 786 786 784 784 784 785 785 784 784 784 783
774 774 771 767 765 766 767 764 767 771 769 771 771 764 763 762 752 748 751 752 749 747 748 749 747 749 753 755 760 764 761 759 764 769 770 771 773 772 769 769 768 768 773 774 769 770 782 788 789 797 802 800 801 798 790 786 786 786 785 784 784 784 785 789 794 798 798 793 792 792 787 786 786 786 787 786 784 786 785 784 785 784 784 784 783 783 782 781
776 778 776 775 772 768 766 764 766 769 768 771 772 766 763 762 756 751 751 751 748 746 748 749 748 752 757 757 762 767 765 761 763 767 770 770 771 772 770 768 769 772 774 774 770 773 786 790 787 792 794 789 790 790 785 787 790 789 788 787 785 785 786 791 795 793 791 798 800 791 788 792 787 781 786 786 784 785 784 784 787 786 784 783 781 781 781 780
778 779 777 781 781 774 770 769 768 769 768 768 769 767 766 763 760 758 753 750 748 746 750 755 753 751 752 753 760 767 769 769 770 771 771 772 772 774 774 771 770 773 773 773 771 774 787 791 785 788 791 786 786 788 785 788 789 787 788 789 786 786 789 792 792 787 789 798 799 790 792 795 786 779 783 784 783 784 783 784 785 784 783 782 781 781 780 779
779 780 776 779 781 775 772 771 770 770 769 769 769 767 767 765 761 756 751 752 754 747 748 758 757 750 748 748 755 765 770 772 776 776 772 771 772 773 776 777 773 770 770 773 775 776 785 789 785 788 792 788 786 787 786 787 789 788 787 786 786 787 788 789 789 786 789 792 788 786 793 792 782 779 780 780 780 781 781 783 783 783 782 781 780 781 779 778
786 786 784 782 779 774 771 769 769 769 767 769 770 766 764 765 762 756 750 752 758 752 747 754 753 749 750 750 753 762 762 761 768 772 768 771 774 773 774 775 772 770 771 774 777 779 786 790 787 789 794 791 785 786 787 788 790 790 788 784 784 787 788 789 789 788 790 792 786 787 794 789 779 777 779 779 779 780 782 783 782 781 780 779 779 779 778 777
793 792 790 788 781 774 772 768 767 769 767 767 770 767 766 764 760 759 754 748 750 751 748 748 749 750 753 753 754 758 756 753 758 759 758 764 768 767 768 767 767 772 775 775 778 781 786 790 787 791 800 794 784 787 789 786 789 792 790 785 784 786 788 787 786 786 789 791 790 792 794 787 778 778 780 780 779 780 781 781 780 779 778 778 778 778 776 775
796 792 791 791 783 774 772 769 766 768 768 768 769 768 768 764 757 759 760 750 745 747 744 741 745 751 756 758 757 754 751 750 752 751 751 755 757 758 762 762 763 768 773 775 778 779 782 787 787 792 801 794 785 789 790 791 799 798 786 780 780 782 783 783 783 784 784 786 791 791 787 781 779 780 781 779 778 778 779 779 780 779 777 776 776 774 774 772